Location: Quaker Farms
(41.4276°N, 73.1557°W)
Time: 19:40:59
(UTC+00:00)

S-56A Canister/Altair - Pass Details

Date: 21 June 2021
Orbit: 631 x 2501 km, 38.9° (Epoch: 30 July)

Event Time Altitude Azimuth Distance (km) Brightness Sun altitude
Rises 07:46:36 0° 216° (SW) 3,187 - -13.9°
Reaches altitude 10° 07:49:40 10° 200° (SSW) 2,113 - -13.5°
Exits shadow 07:50:54 15° 187° (S) 1,768 8.9 -13.3°
Maximum altitude 07:53:05 20° 152° (SSE) 1,462 8.8 -13.1°
Drops below altitude 10° 07:56:21 10° 104° (ESE) 2,009 10.1 -12.7°
Sets 07:59:11 0° 87° (E) 2,978 11.3 -12.3°
